RH
89 87 84 83 83 88 91 89 75 62 55 52 53 54 54 52 54 54 52 47 46 49 51 54 59 65 71 73 73 79 77 80 78 75 64 57 56 50 42 35 30 28 28
88 89 83 82 97 93 94 92 78 66 56 54 55 57 56 57 58 56 53 52 56 56 57 60 62 70 73 76 80 80 82 79 77 76 66 56 51 42 36 32 30 29 26
92 86 88 93 99 99 98 97 91 81 68 58 54 55 55 62 58 58 60 64 65 67 69 75 77 77 80 84 90 88 91 86 84 73 62 52 44 36 35 31 30 28 26
97 92 90 96 98 97 96 98 96 93 84 73 67 61 62 67 67 69 74 79 75 79 86 80 78 79 85 89 92 94 89 85 81 70 54 44 39 36 35 33 30 28 27
95 93 89 89 94 96 98 97 99 98 97 95 95 92 93 92 90 94 92 94 96 97 95 91 90 89 86 94 91 93 84 82 73 55 46 43 40 39 34 31 31 32 32
96 93 92 94 96 94 94 94 97 97 98 99 98 98 98 97 97 97 96 97 97 96 95 95 97 91 91 93 91 84 75 63 55 50 44 40 38 37 33 33 34 34 36
87 87 87 89 92 92 88 88 90 92 95 93 96 95 92 96 98 98 98 96 94 96 99 98 95 94 94 92 82 71 63 57 49 46 43 41 39 37 36 37 38 37 37
74 79 79 82 84 87 86 85 84 85 85 86 88 92 94 95 96 97 98 95 95 98 98 98 97 95 91 86 72 65 57 52 48 45 44 41 40 40 40 40 43 41 39
69 71 70 70 74 77 76 81 82 82 88 88 88 91 91 89 91 94 94 93 93 95 94 90 84 81 81 69 63 61 59 56 51 48 47 47 46 45 44 45 45 44 42
74 74 69 67 68 69 67 69 80 80 77 77 78 78 74 79 76 74 75 75 81 83 81 78 78 77 68 67 68 67 61 58 54 52 52 53 52 50 48 48 48 48 45
63 62 63 68 67 66 67 72 73 74 78 80 77 78 82 81 78 75 74 73 84 85 85 84 77 74 76 76 76 76 74 69 64 60 58 59 59 57 55 53 51 48 46
44 39 47 49 51 52 56 58 62 64 70 72 75 73 71 76 77 77 84 86 86 87 78 77 80 81 83 89 84 84 80 72 66 64 64 65 65 62 60 59 55 51 48
39 43 41 41 45 44 49 52 51 51 59 61 62 67 71 72 75 76 78 75 74 79 79 79 87 92 94 94 88 89 86 81 75 70 70 69 69 68 67 63 57 54 51
41 44 47 46 47 49 46 41 45 56 59 59 59 61 61 63 70 73 76 79 78 76 83 87 82 86 84 87 84 84 80 79 76 76 75 74 71 71 74 74 72 66 60
33 36 43 46 47 46 46 61 61 55 54 62 64 62 65 65 64 66 72 71 79 80 81 83 85 85 85 84 85 85 85 83 83 82 82 79 77 75 74 76 80 78 71
31 30 29 32 39 45 48 52 58 67 77 74 69 71 76 80 82 79 79 80 82 88 85 85 93 94 93 93 93 93 89 88 87 88 88 85 80 78 80 84 86 84 75
23 25 27 31 35 40 44 50 53 59 68 78 84 92 94 93 93 89 87 92 96 94 88 93 98 98 98 98 98 96 96 95 97 95 91 86 84 84 84 83 81 81 74
15 17 22 24 26 29 40 52 57 60 63 68 77 82 84 90 92 95 98 100 97 94 93 98 98 98 98 98 98 98 98 96 96 97 95 92 90 88 83 79 79 78 75
18 17 16 17 23 24 28 38 59 70 77 80 81 88 90 92 95 98 99 96 97 98 99 99 98 99 99 99 99 98 98 99 98 97 95 92 92 89 86 83 81 81 80
30 30 30 28 28 28 29 33 35 56 78 89 97 97 98 98 98 98 98 96 99 98 98 98 99 98 99 99 98 98 98 97 95 93 91 93 91 90 87 86 84 84 78
36 38 41 42 44 46 47 46 44 42 46 80 96 97 98 98 98 98 98 98 98 99 98 98 98 98 98 98 98 98 95 92 90 92 93 93 91 91 89 87 84 82 80
40 43 47 54 60 63 65 65 60 54 49 52 81 95 97 97 97 97 98 98 98 98 98 98 98 98 97 98 98 97 95 93 91 91 93 89 91 93 91 88 88 84 84
45 48 52 61 69 72 74 75 78 73 66 57 59 80 93 97 98 98 98 98 98 98 98 98 98 98 98 97 97 96 95 94 93 92 93 93 92 91 91 89 89 91 92
47 52 58 65 68 68 67 73 84 92 85 71 61 66 88 95 97 98 97 98 98 98 98 98 98 97 98 96 96 95 95 93 93 95 98 98 97 97 96 96 97 97 97
50 56 63 66 63 64 69 74 82 92 93 81 72 69 77 89 95 97 98 98 98 98 97 98 98 98 97 95 96 96 97 96 95 96 97 98 97 97 97 97 94 87 75
52 60 67 63 64 66 74 79 87 93 92 79 72 75 78 86 93 97 97 98 97 97 97 97 96 96 98 97 97 97 98 96 96 95 95 93 89 84 76 69 62 56 51